Volver al catálogo

STARLINK-30526

ActivoComunicacionesVLEO
NORAD 58006·PAYLOAD·🇺🇸 United States

Lanzado Oct 5, 2023 desde Cape Canaveral Space Force Station

Loading…

Próximos Pases (próximas 24 horas)

TLE

ActualizadoSource: CelesTrak SupGP

Época: Sep 15, 2026, 02:11 UTC

1 58006C 23153R   26258.09145833 -.00021006  00000+0 -56298-3 0  2580
2 58006  43.0029  47.2858 0001824 270.9834 338.9591 15.37165874    17

Sigue STARLINK-30526 en tiempo real con AllMySat

Download on the App Store